Crane, MT

1:46 AM MST on February 14, 2016 (GMT -0700)
Sidney-Richland Municipal

Weather History for KSDY - March, 2013

Change the Weather History Date:

Monday, March 4, 2013

  Actual Average (KISN) Record (KISN)
Temperature  
Mean Temperature 20 °F 24 °F  
Max Temperature 28 °F 34 °F 66 °F (1987)
Min Temperature 12 °F 13 °F -26 °F (2003)
Degree Days  
Heating Degree Days 45 41  
Month to date heating degree days 168  
Since 1 July heating degree days 6936  
Cooling Degree Days 0 0  
Month to date cooling degree days 0  
Year to date cooling degree days 0  
Moisture  
Dew Point 15 °F    
Average Humidity 85    
Maximum Humidity 93    
Minimum Humidity 79    
Precipitation  
Precipitation 0.00 in 0.02 in 0.50 in (2013)
Month to date precipitation 0.08  
Year to date precipitation 1.06  
Sea Level Pressure  
Sea Level Pressure 29.97 in    
Wind  
Wind Speed 17 mph (NNW)    
Max Wind Speed 31 mph    
Max Gust Speed 40 mph    
Visibility 3 miles    
Events      
T = Trace of Precipitation, MM = Missing Value Source: NWS Daily Summary

Daily Weather History Graph

Daily Weather History Graph

Search for Another Location

Airport or City:

Trip Planner

Search our weather history database for the weather conditions in past years. The results will help you decide how hot, cold, wet, or windy it might be!

Date:

Astronomy

Mar. 04, 2013 Rise Set
Actual Time 6:31 AM MST 5:46 PM MST
Civil Twilight 6:00 AM MST 6:17 PM MST
Nautical Twilight 5:24 AM MST 6:53 PM MST
Astronomical Twilight 4:48 AM MST 7:29 PM MST
Moon 1:01 AM MST (3/4) 10:11 AM MST (3/4)
Length of Visible Light 12h 17m
Length of Day
11h 15m
Waning Gibbous, 51% of the Moon is Illuminated
Mar 4
Waning Gibbous
Mar 4
Last Quarter
Mar 11
New
Mar 19
First Quarter
Mar 27
Full

Hourly Weather History & Observations

Time (MST) Temp. Windchill Dew Point Humidity Pressure Visibility Wind Dir Wind Speed Gust Speed Precip Events Conditions
12:55 AM 28.4 °F 19.7 °F 26.6 °F 93% 29.65 in 2.5 mi WNW 9.2 mph - N/A   Overcast
1:15 AM 28.4 °F 19.1 °F 24.8 °F 86% 29.65 in 1.5 mi WNW 10.4 mph - N/A   Overcast
1:35 AM 28.4 °F 18.5 °F 24.8 °F 86% 29.64 in 2.0 mi WNW 11.5 mph - N/A   Overcast
1:55 AM 26.6 °F 16.2 °F 24.8 °F 93% 29.64 in 2.5 mi WNW 11.5 mph - N/A   Mostly Cloudy
2:15 AM 26.6 °F 18.2 °F 24.8 °F 93% 29.66 in 1.5 mi WNW 8.1 mph - N/A   Overcast
2:35 AM 26.6 °F 19.1 °F 23.0 °F 86% 29.66 in 2.5 mi WNW 6.9 mph - N/A   Overcast
2:55 AM 24.8 °F 19.1 °F 21.2 °F 86% 29.66 in 1.8 mi WNW 4.6 mph - N/A   Overcast
3:15 AM 24.8 °F 17.9 °F 21.2 °F 86% 29.66 in 1.8 mi WNW 5.8 mph - N/A   Overcast
3:35 AM 24.8 °F 16.9 °F 19.4 °F 80% 29.66 in 3.0 mi WNW 6.9 mph - N/A   Overcast
3:55 AM 23.0 °F 15.8 °F 19.4 °F 86% 29.67 in 3.0 mi WNW 5.8 mph - N/A   Overcast
4:15 AM 23.0 °F 13.9 °F 19.4 °F 86% 29.67 in 1.5 mi WNW 8.1 mph - N/A   Overcast
4:35 AM 23.0 °F 13.1 °F 19.4 °F 86% 29.67 in 1.5 mi WNW 9.2 mph - N/A   Overcast
4:55 AM 23.0 °F 10.1 °F 19.4 °F 86% 29.68 in 1.2 mi North 15.0 mph - N/A   Overcast
5:15 AM 23.0 °F 10.6 °F 19.4 °F 86% 29.68 in 1.5 mi NNW 13.8 mph - N/A   Overcast
5:35 AM 21.2 °F 6.8 °F 19.4 °F 93% 29.68 in 1.2 mi North 17.3 mph - N/A   Overcast
5:55 AM 21.2 °F 6.4 °F 19.4 °F 93% 29.69 in 1.2 mi North 18.4 mph 23.0 mph N/A   Overcast
6:35 AM - - - N/A% 29.71 in 1.2 mi North 19.6 mph 27.6 mph N/A   Overcast
6:55 AM - - - N/A% 29.73 in 1.5 mi North 20.7 mph 27.6 mph N/A   Overcast
7:15 AM - - - N/A% 29.74 in 1.0 mi North 21.9 mph 28.8 mph N/A   Overcast
7:35 AM - - - N/A% 29.76 in 0.8 mi North 24.2 mph 31.1 mph N/A   Overcast
8:15 AM - - - N/A% 29.80 in 0.5 mi North 24.2 mph 29.9 mph N/A   Overcast
8:35 AM - - - N/A% 29.82 in 0.5 mi North 24.2 mph 32.2 mph N/A   Overcast
8:55 AM - - - N/A% 29.83 in 0.2 mi North 25.3 mph 32.2 mph N/A   Overcast
9:15 AM - - - N/A% 29.85 in 0.2 mi North 27.6 mph 34.5 mph N/A   Overcast
9:35 AM - - - N/A% 29.87 in 0.2 mi North 27.6 mph 33.4 mph N/A   Overcast
9:55 AM - - - N/A% 29.88 in 0.2 mi North 24.2 mph 35.7 mph N/A   Overcast
10:15 AM - - - N/A% 29.89 in 0.2 mi North 31.1 mph 40.3 mph N/A   Overcast
10:35 AM - - - N/A% 29.92 in 0.2 mi North 28.8 mph 35.7 mph N/A   Overcast
10:55 AM - - - N/A% 29.93 in 0.2 mi North 27.6 mph 36.8 mph N/A   Overcast
11:15 AM - - - N/A% 29.95 in 0.2 mi North 26.5 mph 36.8 mph N/A   Overcast
11:55 AM - - - N/A% 29.97 in 0.2 mi NNW 29.9 mph 36.8 mph N/A   Overcast
12:15 PM - - - N/A% 29.99 in 0.2 mi NNW 27.6 mph 38.0 mph N/A   Overcast
12:35 PM - - - N/A% 30.00 in 0.2 mi NNW 31.1 mph 38.0 mph N/A   Overcast
12:55 PM - - - N/A% 30.01 in 0.2 mi NNW 27.6 mph 36.8 mph N/A   Overcast
1:35 PM - - - N/A% 30.03 in 0.2 mi NNW 29.9 mph 39.1 mph N/A   Overcast
1:55 PM 19.4 °F 0.5 °F 15.8 °F 86% 30.05 in 0.2 mi NNW 29.9 mph 36.8 mph N/A   Overcast
2:15 PM 19.4 °F 0.2 °F 15.8 °F 86% 30.07 in 0.2 mi NNW 31.1 mph 38.0 mph N/A   Overcast
2:55 PM 19.4 °F 0.5 °F 14.0 °F 80% 30.10 in 0.5 mi NNW 29.9 mph 36.8 mph N/A   Overcast
3:35 PM 17.6 °F 0.5 °F 15.8 °F 93% 30.14 in 0.8 mi NNW 21.9 mph 32.2 mph N/A   Overcast
3:55 PM 17.6 °F -0.3 °F 14.0 °F 86% 30.15 in 0.5 mi NW 24.2 mph 32.2 mph N/A   Overcast
4:35 PM 17.6 °F -0.6 °F 14.0 °F 86% 30.18 in 0.5 mi NNW 25.3 mph 31.1 mph N/A   Overcast
4:55 PM 17.6 °F -0.6 °F 14.0 °F 86% 30.19 in 0.5 mi NNW 25.3 mph 32.2 mph N/A   Overcast
5:15 PM - - - N/A% 30.20 in 0.8 mi NNW 25.3 mph 34.5 mph N/A   Overcast
5:35 PM - - - N/A% 30.21 in 1.2 mi NNW 27.6 mph 33.4 mph N/A   Overcast
6:15 PM 15.8 °F -1.1 °F 10.4 °F 79% 30.26 in 4.0 mi NW 19.6 mph - N/A   Overcast
6:35 PM 15.8 °F -0.2 °F 12.2 °F 86% 30.28 in 8.0 mi NW 17.3 mph 21.9 mph N/A   Overcast
6:55 PM 15.8 °F -1.1 °F 10.4 °F 79% 30.29 in 5.0 mi NW 19.6 mph - N/A   Overcast
7:15 PM 15.8 °F -3.1 °F 10.4 °F 79% 30.29 in 4.0 mi NW 25.3 mph - N/A   Overcast
7:35 PM 15.8 °F -2.7 °F 10.4 °F 79% 30.29 in 2.5 mi NNW 24.2 mph - N/A   Overcast
7:55 PM 14.0 °F -3.9 °F 10.4 °F 86% 30.29 in 3.0 mi NNW 20.7 mph 27.6 mph N/A   Overcast
8:15 PM 14.0 °F -3.4 °F 8.6 °F 79% 30.31 in 10.0 mi NW 19.6 mph - N/A   Overcast
8:35 PM 12.2 °F -6.3 °F 8.6 °F 85% 30.31 in 10.0 mi NW 20.7 mph - N/A   Overcast
8:55 PM 12.2 °F -5.8 °F 8.6 °F 85% 30.32 in 9.0 mi NW 19.6 mph - N/A   Overcast
9:15 PM 12.2 °F -5.3 °F 8.6 °F 85% 30.32 in 8.0 mi NW 18.4 mph - N/A   Overcast
9:35 PM 12.2 °F -5.3 °F 6.8 °F 79% 30.33 in 10.0 mi NW 18.4 mph - N/A   Overcast
9:55 PM 12.2 °F -4.8 °F 8.6 °F 85% 30.33 in 8.0 mi NNW 17.3 mph 23.0 mph N/A   Overcast
10:15 PM 12.2 °F -5.3 °F 8.6 °F 85% 30.34 in 10.0 mi NW 18.4 mph - N/A   Overcast
10:55 PM 12.2 °F -3.1 °F 6.8 °F 79% 30.34 in 10.0 mi NW 13.8 mph - N/A   Overcast
11:15 PM 12.2 °F -4.8 °F 6.8 °F 79% 30.35 in 10.0 mi WNW 17.3 mph - N/A   Overcast